Weather in Brusyliv

Ukraine / Zhytomyr Region     50˚17′04″N   29˚31′36″E
temp.,
°C
wind,
m/s
gust,
m/s
humid.,
%
clouds,
%
prec.,
mm/h
press.,
hPa
HPBL,
m
29 november, sun
sun2923:00+1˚sw249099 0.1 1019171
02:00wsw229596 0.1 101998
05:00−1˚sw229354 0.0 1019132
08:00−1˚ssw229159 0.0 101976
11:00+1˚ssw238167 0.0 1020429
14:00+2˚sw347382 0.1 1020750
17:00+1˚sw2375100 0.1 102185
20:00−1˚sw2380100 0.1 102257
30 november, mon
mon3023:00−1˚sw1280100 0.0 102328
02:00−2˚wsw228177 0.0 102422
05:00−2˚w22830 0.0 102327
08:00−2˚w22880 0.0 102532
11:00+1˚wnw34720 0.0 1025410
14:00+1˚nw346615 0.0 1026634
17:00−1˚nnw228131 0.0 102622
20:00−2˚nnw348762 0.0 102799
1 december, tue
tue123:00−3˚nnw24898 0.0 102899
02:00−3˚n23856 0.0 102869
05:00−4˚nne238845 0.0 102856
08:00−4˚nne348922 0.0 1029101
11:00−1˚ne46700 0.0 1029515
14:00nne46680 0.0 1028544
17:00−3˚nne37810 0.0 1028164
20:00−3˚nne378824 0.0 1028203
2 december, wed
wed223:00−2˚ne359593 0.0 1028185
02:00−1˚nne359896 0.1 1028205
05:00ne3699100 0.4 1027311
08:00−1˚ene3695100 0.6 1027336
11:00ene359197 0.1 1027356
14:00e349198 0.4 1026375
17:00−1˚e359799 0.2 1026235
20:00−2˚e359799 0.3 1026164
3 december, thu
thu323:00ese369896 0.2 1026271
02:00ese479898 0.4 1026313
05:00se3598100 0.1 1025254
08:00ese3598100 0.1 1025202
11:00+1˚ese3698100 0.1 1025279
14:00+1˚ese489799 0.1 1024372
17:00+1˚ese479899 0.0 1024275
20:00+2˚se599799 0.1 1024367